Location: Newark
(44.1667°N, 8.2500°E)
Time: 07:30:46
(UTC+00:00)

Tiros 1 - Visible Passes

Search period start: 13 December 2019 00:00
Search period end: 23 December 2019 00:00
Orbit: 630 x 664 km, 48.4° (Epoch: 12 December)

Date Brightness Start Highest point End Pass type
(mag) Time Alt. Az. Time Alt. Az. Time Alt. Az.
13 Dec 9.2 03:42:40 24° SE 03:42:40 24° SE 03:45:51 10° E visible
13 Dec 7.1 05:20:24 18° WSW 05:23:50 89° SSE 05:28:33 10° ENE visible
14 Dec 8.0 04:08:13 47° SE 04:08:13 47° SE 04:12:21 10° ENE visible
14 Dec 7.2 05:45:54 13° W 05:50:00 63° NNW 05:54:39 10° ENE visible
15 Dec 7.0 04:33:35 80° SSW 04:33:48 85° SSE 04:38:31 10° ENE visible
15 Dec 7.5 06:11:40 10° W 06:16:16 51° N 06:20:50 10° ENE visible
16 Dec 9.8 03:21:08 17° E 03:21:08 17° E 03:22:18 10° ENE visible
16 Dec 7.1 04:58:48 48° WNW 04:59:56 65° NNW 05:04:37 10° ENE visible
17 Dec 9.0 03:46:17 28° ENE 03:46:17 28° ENE 03:48:29 10° ENE visible
17 Dec 7.4 05:23:56 28° WNW 05:26:12 52° N 05:30:48 10° ENE visible
18 Dec 8.1 04:11:20 42° NE 04:11:20 42° NE 04:14:35 10° ENE visible
18 Dec 7.5 05:49:00 17° WNW 05:52:31 50° N 05:57:05 10° E visible
19 Dec 7.5 04:36:21 52° N 04:36:21 52° N 04:40:45 10° ENE visible
19 Dec 7.4 06:14:07 10° WNW 06:18:48 60° NNE 06:23:25 10° E visible
20 Dec 9.9 03:23:40 15° ENE 03:23:40 15° ENE 03:24:33 10° ENE visible
20 Dec 7.5 05:01:20 41° NW 05:02:27 50° N 05:07:02 10° ENE visible
21 Dec 9.1 03:48:37 25° ENE 03:48:37 25° ENE 03:50:42 10° ENE visible
21 Dec 7.4 05:26:17 27° WNW 05:28:44 58° NNE 05:33:22 10° E visible
22 Dec 8.2 04:13:34 40° NE 04:13:34 40° NE 04:16:58 10° ENE visible
22 Dec 7.2 05:51:14 17° WNW 05:54:56 82° NNE 05:59:37 10° ESE visible
